Dewpoint
36 36 34 32 34 37 37 34 34 36 38 38 39 39 39 40 39 39 39 39 39 39 39 39 39 40 42 43 45 45 46 46 47 47 48 48 49 49 50 50 50 50 49 49 49 48 48 48 48 48 48 48 48 48 48 48 48 49 49 49 49 49 49 49 50 50 50 50 51 51 51 51 51 52 52 52 52 52 52 52 52 52 53 53 54 54
36 36 34 32 34 36 38 34 34 35 37 38 38 39 39 39 39 39 39 39 39 39 39 39 39 39 40 42 44 45 45 46 46 47 47 48 48 49 49 49 49 49 49 48 48 48 48 48 48 48 48 48 48 48 48 48 48 48 48 48 48 48 49 49 49 50 50 50 51 51 51 51 51 51 51 51 51 52 52 52 52 52 52 52 53 54
37 37 37 34 34 35 37 35 34 34 35 36 37 37 37 37 39 40 40 40 39 38 38 38 39 39 39 41 43 44 45 45 46 46 47 47 48 48 48 49 49 49 48 48 48 48 48 48 47 48 48 48 48 48 48 48 48 47 47 48 48 48 48 48 48 49 49 50 50 50 50 50 50 50 50 50 51 51 51 51 51 51 52 52 52 53
37 38 37 36 34 34 35 34 34 33 34 35 36 36 35 37 38 39 40 39 39 38 37 37 38 38 39 40 42 43 44 45 45 46 46 47 47 48 48 48 48 48 48 48 47 47 47 47 47 47 47 47 47 47 47 47 47 47 47 47 47 47 48 48 48 48 49 49 49 50 50 50 50 50 50 50 51 51 51 51 51 51 51 51 52 52
37 37 37 37 37 36 34 33 34 34 35 35 35 34 35 37 38 39 39 39 39 39 39 38 37 38 39 39 40 43 43 44 45 45 46 46 47 47 47 47 47 47 47 47 46 46 46 46 46 46 46 47 47 47 47 47 47 47 47 47 47 47 47 48 48 48 49 49 49 49 49 49 49 49 49 50 50 50 51 51 50 50 50 51 51 51
37 38 38 38 38 37 36 34 35 36 36 35 34 34 35 35 36 37 38 38 39 39 39 39 38 38 38 39 40 42 43 43 44 45 45 45 46 46 46 46 46 46 46 45 45 45 45 45 46 46 46 46 46 46 46 46 46 46 47 47 47 47 47 47 48 48 48 48 49 49 49 48 48 48 48 49 49 50 50 50 50 50 50 50 50 50
37 37 38 37 37 37 37 35 35 36 36 36 36 35 35 35 35 35 36 37 37 38 38 39 39 38 38 38 40 41 42 43 43 44 44 44 44 45 45 45 45 45 45 45 45 45 45 45 45 45 45 45 45 46 46 46 46 46 46 47 47 46 46 47 47 47 48 48 48 48 48 48 48 48 48 48 48 48 49 49 49 49 49 49 49 50
37 37 37 37 37 36 37 35 35 35 35 36 36 36 37 36 36 36 35 34 34 35 37 38 38 38 38 38 39 40 40 40 41 41 42 43 43 43 43 44 44 44 44 44 44 44 44 45 45 45 45 45 45 45 45 46 46 46 46 46 46 46 46 46 47 47 47 48 48 48 48 48 47 47 47 47 47 47 48 48 48 48 48 48 49 49
36 36 36 36 36 36 36 36 35 34 33 34 35 36 36 36 36 36 35 35 34 34 35 36 37 38 38 37 38 39 39 39 39 39 40 41 41 42 43 43 43 43 43 43 44 44 44 44 44 44 44 45 45 45 45 45 45 46 46 46 46 46 46 46 46 47 47 47 47 48 47 47 47 47 47 46 47 47 47 47 48 48 48 48 48 48
34 35 36 36 36 36 36 35 35 33 28 31 32 33 34 35 35 35 35 35 35 34 34 35 36 37 37 37 37 38 39 40 41 41 42 41 41 42 43 42 42 42 43 43 43 43 43 43 43 44 44 44 44 44 44 44 45 45 45 45 45 45 46 46 46 46 46 47 47 47 47 47 47 46 46 46 46 46 47 47 47 47 47 47 48 48
34 34 35 35 35 35 35 35 34 32 27 29 30 30 31 32 34 34 34 34 35 35 34 34 34 35 36 37 37 38 38 38 39 39 41 41 41 41 41 41 41 41 42 42 42 42 43 43 43 43 43 43 43 43 43 44 44 44 44 44 44 45 45 45 45 45 46 46 46 46 46 46 46 46 46 46 46 46 46 46 46 46 46 46 47 47
34 34 34 34 34 34 34 34 33 31 30 31 32 32 32 30 30 32 34 34 34 34 34 34 34 34 34 36 37 37 38 37 37 37 38 39 39 39 39 39 39 40 40 41 41 41 41 42 42 42 42 42 43 43 43 43 43 43 43 43 43 44 44 44 44 44 45 45 45 45 45 45 45 45 45 45 45 46 46 46 46 46 46 46 46 46
34 34 34 34 34 34 33 33 33 32 32 33 33 33 34 30 29 30 32 34 34 34 35 35 34 33 32 33 34 36 36 36 37 37 37 37 37 37 37 37 37 38 38 38 38 39 40 40 41 41 41 41 42 42 42 42 42 43 43 43 43 43 43 43 43 44 44 44 44 44 44 44 44 44 44 45 45 45 45 45 45 45 45 45 45 45
33 34 34 34 34 33 33 33 33 33 33 33 33 34 34 32 30 30 31 33 34 34 34 34 34 34 33 32 32 33 34 35 36 36 36 36 36 36 36 36 36 37 36 36 37 37 39 39 39 39 40 40 41 41 41 41 42 42 42 42 42 43 43 43 43 43 43 43 43 43 43 43 43 44 44 44 44 44 45 45 45 45 45 44 44 44
33 33 33 33 33 33 33 33 33 33 33 34 34 34 34 33 32 32 33 34 34 34 34 34 34 35 35 34 32 31 33 34 35 35 35 36 35 35 34 35 35 35 35 35 36 36 38 38 37 37 38 39 39 39 40 40 41 41 41 42 42 42 42 43 43 43 43 43 43 43 43 43 43 43 43 43 44 44 44 44 44 44 44 44 44 44
33 33 33 33 33 33 33 33 33 33 33 34 34 34 34 33 33 33 33 34 34 34 34 34 34 34 34 33 31 30 32 33 34 34 34 34 34 34 32 34 34 34 35 35 35 36 36 36 36 36 36 38 39 39 40 40 40 41 41 41 41 42 42 42 42 42 42 43 43 43 43 43 43 43 43 43 43 43 43 44 44 44 44 44 44 43
32 32 33 33 33 33 33 33 33 33 34 34 34 34 34 34 34 34 34 34 34 35 35 35 34 33 31 31 32 32 32 31 30 30 30 33 32 30 28 31 34 34 35 35 35 35 35 36 36 36 36 38 39 39 40 40 40 41 41 41 41 41 42 42 42 42 42 42 42 42 42 42 42 43 43 43 43 43 43 43 43 43 43 43 43 43
31 31 31 32 32 32 32 31 31 32 33 33 33 34 34 34 34 35 35 36 36 36 36 36 35 34 32 30 31 32 31 30 30 30 31 34 33 30 25 28 31 34 34 34 35 35 35 35 35 36 37 39 39 39 40 40 40 41 41 41 41 41 41 42 42 42 42 42 42 42 42 42 42 42 42 43 43 43 43 43 43 43 43 43 43 43
31 31 32 32 32 32 32 31 31 31 32 32 32 33 34 34 34 35 36 37 37 37 37 36 36 35 34 32 33 33 30 30 32 34 35 36 35 32 25 28 31 33 34 34 35 35 36 36 36 38 39 39 39 40 40 40 40 41 41 41 41 41 41 42 42 42 42 42 42 42 42 42 42 42 42 42 42 42 43 43 43 43 43 43 43 43
32 32 32 32 32 32 32 32 31 31 31 33 34 34 33 34 34 35 36 37 37 38 37 37 36 36 35 35 34 32 30 31 32 34 35 34 35 33 25 28 32 34 34 35 35 36 36 36 36 37 38 39 39 40 40 40 40 41 41 41 41 41 41 42 42 42 42 42 42 42 42 42 42 42 42 42 42 42 42 42 42 42 42 42 42 42
33 33 32 32 32 32 31 31 31 32 33 34 33 33 33 33 33 33 34 34 35 36 36 36 35 35 36 35 34 32 30 32 32 33 33 33 34 33 30 29 31 33 35 35 36 36 36 36 35 36 37 38 39 39 40 40 40 41 41 41 41 41 41 41 42 42 42 42 42 42 42 42 42 42 42 42 42 42 42 42 42 42 42 42 42 42
33 33 32 32 32 32 32 32 32 33 34 34 33 32 33 32 32 33 33 33 33 34 34 34 34 34 35 34 34 34 32 33 34 34 34 33 33 33 33 31 32 33 34 35 35 35 35 35 35 36 37 39 39 39 40 40 40 40 41 41 41 41 41 41 41 42 42 42 42 42 42 42 42 42 42 42 42 42 42 42 42 42 42 42 42 42
34 33 33 32 32 33 33 33 33 34 35 34 34 34 34 34 33 33 33 34 34 34 34 35 35 36 36 37 37 37 36 36 35 35 35 34 34 34 34 31 31 32 34 34 35 35 35 35 35 36 37 39 39 39 40 40 40 40 40 41 41 41 41 41 41 41 41 41 42 42 42 42 42 42 42 42 42 42 42 42 42 42 42 42 42 42
33 33 33 33 33 33 33 34 34 34 35 35 36 36 36 36 36 36 37 37 37 38 38 38 38 38 38 39 39 38 38 37 37 37 36 36 36 35 34 32 32 33 34 34 35 35 35 35 35 35 36 38 39 39 39 40 40 40 40 41 41 41 41 41 41 41 41 41 41 41 41 41 41 41 41 41 41 41 41 42 42 42 42 42 41 41
33 33 33 34 34 34 34 35 35 35 36 37 38 38 39 39 39 40 40 40 40 39 39 39 38 37 37 37 37 36 36 37 37 37 37 37 36 36 34 33 33 34 34 35 35 35 34 35 35 35 35 36 37 39 39 39 40 40 40 40 41 41 41 41 41 41 41 41 41 41 41 41 41 41 41 41 41 41 41 41 41 41 41 41 41 41
35 35 36 36 36 37 38 38 38 38 38 37 37 37 38 38 39 39 39 39 39 39 38 37 35 34 34 33 32 32 33 34 35 37 38 36 35 35 35 34 34 34 34 35 34 34 34 34 34 34 34 35 36 38 39 39 39 39 40 40 40 40 41 41 41 41 41 41 41 41 41 41 41 41 41 41 41 41 41 41 41 41 41 41 41 41
37 37 37 38 38 38 38 38 38 38 37 37 36 35 34 35 35 35 35 36 36 36 35 34 33 32 32 31 30 30 31 31 33 35 37 36 35 34 34 34 34 34 34 34 34 34 35 35 35 35 35 35 35 37 38 39 39 39 39 40 40 40 40 40 41 41 41 41 41 41 41 41 41 41 40 40 40 40 40 40 40 40 40 40 40 39
36 36 36 36 36 37 37 37 37 37 37 37 37 36 35 34 33 33 32 33 34 34 34 33 32 31 31 30 30 30 30 30 32 34 35 35 34 34 34 34 34 34 34 34 35 35 35 35 35 35 35 35 35 36 37 38 39 39 39 39 39 40 40 40 40 40 40 40 40 40 40 40 40 40 40 40 40 40 40 40 39 39 39 39 38 38
35 36 36 36 36 36 36 37 37 37 37 37 37 36 35 34 32 32 31 32 32 32 32 32 32 31 31 30 30 30 30 30 31 33 34 34 34 34 34 34 34 34 34 35 35 35 33 34 34 34 35 35 36 36 36 37 37 38 38 39 39 39 39 39 39 39 39 39 39 39 39 39 39 39 39 39 39 39 39 39 39 39 38 37 36 36
33 34 34 35 36 36 36 36 36 37 37 37 37 36 35 34 32 31 31 31 32 32 32 32 32 32 32 31 31 30 30 30 32 33 34 34 34 34 34 34 34 35 35 36 35 34 31 30 30 31 33 34 34 34 33 34 34 34 34 35 36 37 38 38 38 38 39 39 39 39 39 38 38 38 38 38 38 38 38 38 38 37 36 36 35 34
32 33 33 34 34 34 34 34 34 34 35 35 35 35 34 33 33 32 32 32 33 33 33 33 33 33 33 32 30 29 27 28 31 34 34 34 34 34 34 34 34 35 36 36 34 33 31 31 30 29 28 28 27 27 29 30 30 29 28 30 31 33 35 35 36 36 36 37 37 37 37 37 37 37 37 37 37 37 37 37 37 37 36 34 34 33
32 32 32 31 31 31 31 31 31 31 32 32 33 33 34 34 34 34 34 34 34 34 34 34 34 34 34 33 31 29 28 28 31 34 35 34 34 34 35 35 35 35 36 36 35 34 32 33 32 29 25 22 21 21 25 27 27 26 25 26 27 29 32 33 34 34 34 35 35 35 36 36 36 36 36 36 36 36 37 37 36 36 35 34 33 33
30 30 29 29 29 29 29 29 29 29 30 30 31 32 33 33 34 34 34 34 34 34 34 34 33 33 33 32 31 30 30 30 32 34 36 35 34 34 35 35 35 35 36 37 37 36 35 35 34 31 27 24 22 22 23 26 27 26 25 26 26 27 29 31 31 32 33 34 34 35 35 35 35 35 35 35 35 35 35 35 35 35 34 33 33 33
29 28 28 28 28 28 28 28 28 28 29 29 30 30 31 32 32 33 33 33 33 34 33 33 32 32 31 30 30 30 30 31 32 34 36 36 35 35 34 34 34 34 35 35 35 36 35 35 34 34 32 30 29 27 26 26 27 27 24 25 26 26 26 28 29 30 31 31 31 31 33 33 34 34 34 34 34 34 34 34 34 34 34 33 32 32
28 28 27 27 27 27 27 27 27 28 28 28 28 28 29 30 30 31 31 31 32 32 32 32 32 31 31 30 30 30 30 30 32 34 37 37 37 35 33 33 34 34 34 34 34 34 34 34 34 34 34 33 33 31 28 24 23 23 22 24 25 25 24 25 26 27 28 28 28 27 26 27 29 30 32 32 32 32 32 32 33 33 33 32 32 31
27 27 27 27 27 27 27 27 26 26 26 26 26 26 27 28 28 29 30 30 31 31 32 32 33 33 33 33 33 32 32 32 33 35 37 38 38 37 35 34 34 34 34 34 34 34 34 34 34 34 34 34 33 32 30 23 21 20 21 22 24 24 23 22 22 23 24 25 25 25 24 25 26 27 29 31 31 31 31 32 32 32 32 32 32 32
28 28 27 27 26 26 26 26 25 25 25 25 25 25 25 26 27 28 29 30 31 31 32 33 34 34 35 36 36 36 35 35 36 36 38 38 38 37 36 36 36 36 35 35 34 34 34 34 34 34 34 33 33 32 31 27 24 21 20 21 23 24 23 22 22 22 21 24 25 25 25 25 26 28 29 30 31 31 32 32 32 32 33 33 33 33
28 27 27 26 26 25 25 25 25 25 25 24 24 25 25 25 26 27 27 28 29 30 30 30 30 32 34 34 35 35 36 36 36 37 37 37 37 37 36 36 36 37 37 36 36 35 34 34 33 32 32 32 32 32 32 31 29 26 23 22 23 23 22 22 22 22 22 24 25 27 28 28 28 28 29 30 30 30 30 30 31 32 32 32 32 33
27 26 25 25 25 25 25 25 25 25 25 25 25 25 25 26 26 26 27 27 27 28 29 29 29 30 30 32 33 34 34 34 34 35 36 35 35 36 36 36 36 36 37 37 37 36 35 34 33 32 32 32 32 32 31 31 30 29 27 25 23 22 22 23 24 24 25 25 25 27 28 28 28 28 27 27 27 27 27 27 28 30 30 30 30 31
26 25 25 25 25 25 25 25 25 25 25 25 26 26 26 27 27 27 27 28 28 29 29 29 29 30 30 31 32 33 33 34 34 34 34 34 34 35 36 36 36 36 37 37 37 37 36 35 34 34 34 34 34 34 34 33 31 30 31 30 29 27 25 25 24 24 25 25 25 26 27 27 27 27 27 26 26 25 25 25 25 27 29 28 27 27
26 26 26 26 26 26 26 26 26 26 26 26 26 27 27 28 28 28 29 29 30 30 30 30 30 30 30 31 32 33 33 34 34 34 34 34 34 34 35 35 36 36 37 37 37 37 37 36 36 35 35 35 35 35 34 34 34 34 33 33 31 29 28 28 26 25 25 25 25 26 27 27 28 28 28 28 27 26 26 25 25 25 28 27 27 25
27 26 26 26 26 26 26 26 27 27 27 27 28 28 29 30 30 30 30 30 29 29 29 30 30 30 30 31 32 33 34 34 35 35 34 34 34 34 35 35 36 36 37 37 37 37 37 37 36 36 35 35 35 34 34 34 34 34 34 34 33 32 31 30 27 25 26 26 25 26 27 28 28 28 29 28 27 26 27 26 26 27 28 27 27 26
25 25 25 25 26 26 27 27 27 28 28 29 29 30 31 31 31 30 30 29 29 29 30 30 31 31 31 32 33 34 34 34 35 35 36 35 34 34 35 35 36 37 37 37 36 36 37 37 37 36 36 36 35 34 34 34 34 34 34 34 33 33 31 28 25 24 25 26 26 26 27 28 28 28 27 27 26 25 25 28 29 30 30 28 27 26
25 25 25 25 25 26 26 26 27 27 28 29 30 30 30 30 29 29 29 30 30 32 33 34 34 34 34 34 34 34 35 36 36 35 36 36 35 35 35 35 36 37 38 37 37 36 36 36 36 36 36 36 35 34 34 33 33 33 32 33 33 33 32 30 27 25 24 25 26 27 27 27 26 26 25 25 25 25 25 26 27 27 28 27 27 26
25 25 25 25 26 26 26 27 27 27 28 28 28 28 28 28 29 30 31 32 33 34 34 33 31 30 28 28 29 30 30 30 30 32 33 34 35 36 36 36 36 37 38 38 37 37 36 36 36 36 36 36 35 34 33 33 32 32 32 33 33 33 32 32 30 27 25 25 25 26 26 26 26 25 25 25 25 25 25 25 25 25 25 25 25 25
25 25 26 26 26 26 27 27 27 27 27 27 27 27 28 28 29 30 31 31 30 29 28 27 27 26 26 27 27 27 28 28 28 29 30 31 32 34 35 36 36 37 38 38 38 38 37 36 36 36 36 35 34 34 33 33 32 31 31 32 32 31 31 31 30 28 27 27 26 26 25 25 25 25 26 25 25 25 25 25 25 25 24 24 24 24
26 26 26 26 26 26 26 26 26 26 26 26 27 27 27 27 28 28 29 29 29 29 29 29 28 28 28 28 28 28 28 28 28 29 29 30 30 32 33 35 36 37 37 37 38 38 38 37 37 36 35 34 33 32 32 32 31 31 31 30 30 30 30 29 28 28 28 28 28 27 25 25 25 25 25 25 25 25 25 24 24 24 24 24 24 24
26 26 26 26 26 26 26 26 26 26 26 26 26 26 26 27 27 28 28 29 29 29 29 28 28 28 28 28 28 28 28 28 29 29 30 32 33 34 34 34 34 35 36 36 37 37 37 36 36 35 34 33 32 31 31 31 31 31 30 30 29 29 29 29 28 27 28 28 28 27 26 25 25 25 25 25 25 24 24 24 23 24 24 24 24 24
26 26 26 26 25 25 25 26 26 26 26 26 26 26 26 27 28 29 28 29 29 29 28 28 28 28 28 28 28 28 29 29 30 31 32 33 34 34 33 33 33 34 34 34 34 34 34 34 34 34 34 33 32 31 30 30 30 30 30 29 29 29 28 28 28 27 27 27 26 25 25 25 26 25 25 24 24 23 23 23 23 23 24 24 24 24
26 26 26 25 25 25 26 26 26 26 26 27 27 27 27 28 28 29 29 29 29 29 29 29 29 29 29 28 29 29 30 30 31 32 33 32 32 32 32 32 33 32 32 31 31 31 31 31 31 32 33 34 33 32 30 30 30 30 29 29 28 28 28 27 27 27 27 26 25 25 24 24 24 25 25 24 23 22 22 22 22 23 23 24 24 24
25 25 26 26 26 26 27 27 27 27 28 28 28 28 29 29 28 28 28 29 29 30 30 30 30 30 30 30 30 31 32 32 32 31 31 30 30 31 32 33 32 31 30 30 29 28 28 28 27 28 29 32 33 33 31 30 30 29 29 27 27 26 27 26 26 27 27 27 25 24 23 23 23 23 23 23 22 21 21 21 21 22 22 22 22 23